DW2465 Weather Reports


Display with metric or nautical units.
time (UTC)temp
F
wind
direction
speed
MPH
gust
MPH
rain 1hr
in
rain 24hr
in
rain mn
in
humidity
%
barometer
mb
20260506041534 38 307 0.0 0.0 0.00 0.00 0.00 58 1013.6
20260506040035 39 281 0.0 0.0 0.00 0.00 0.00 57 1013.7
20260506034559 39 302 0.0 0.0 0.00 0.00 0.00 57 1013.7
20260506033032 40 299 0.0 0.0 0.00 0.00 0.00 56 1013.4
20260506031529 40 279 0.0 0.0 0.00 0.00 0.00 55 1013.3
20260506030026 41 309 0.0 0.0 0.00 0.00 0.00 54 1013.2
20260506024522 41 294 0.0 0.0 0.00 0.00 0.00 53 1012.9
20260506023020 42 287 0.0 0.0 0.00 0.00 0.00 52 1012.7
20260506021519 42 315 0.0 0.0 0.00 0.00 0.00 51 1012.6
20260506020017 43 274 0.0 0.0 0.00 0.00 0.00 50 1012.3
20260506014517 43 281 0.0 0.0 0.00 0.00 0.00 48 1012.1
20260506013012 44 318 0.0 0.0 0.00 0.00 0.00 47 1011.9
20260506011514 44 293 0.0 0.0 0.00 0.00 0.00 45 1011.6
20260506010012 45 267 0.0 0.0 0.00 0.00 0.00 44 1011.7
20260506004510 46 321 0.0 0.0 0.00 0.00 0.00 44 1011.5
20260506003005 46 333 0.0 0.0 0.00 0.00 0.00 43 1011.3
20260506001504 47 267 0.0 0.0 0.00 0.00 0.00 42 1011.1
20260506000002 47 275 0.0 0.0 0.00 0.00 0.00 42 1011.0
20260505234553 47 326 0.0 0.0 0.00 0.00 0.00 41 1010.9
20260505233036 48 223 0.0 0.0 0.00 0.00 0.00 40 1010.6
20260505231532 48 254 0.0 0.0 0.00 0.00 0.00 40 1010.5
20260505230037 48 244 0.0 0.0 0.00 0.00 0.00 41 1010.4
20260505224528 48 269 0.0 0.0 0.00 0.00 0.00 41 1010.5
20260505223027 48 272 0.0 0.0 0.00 0.00 0.00 41 1010.6
20260505221525 47 279 0.0 0.0 0.00 0.00 0.00 42 1010.4
20260505220033 47 298 0.0 0.0 0.00 0.00 0.00 42 1010.5
20260505214529 47 244 0.0 0.0 0.00 0.00 0.00 42 1010.7
20260505213025 47 322 0.0 0.0 0.00 0.00 0.00 41 1010.9
20260505211519 47 351 0.0 0.0 0.00 0.00 0.00 41 1010.6
20260505210019 48 269 0.0 0.0 0.00 0.00 0.00 40 1010.6
20260505204518 48 294 0.0 0.0 0.00 0.00 0.00 41 1010.7
20260505203017 47 321 0.0 0.0 0.00 0.00 0.00 42 1010.7
20260505201518 47 269 0.0 0.0 0.00 0.00 0.00 41 1010.7
20260505200013 48 235 0.0 0.0 0.00 0.00 0.00 42 1010.6
20260505194527 48 275 0.0 0.0 0.00 0.00 0.00 42 1010.6
20260505193029 47 254 0.0 0.0 0.00 0.00 0.00 41 1010.6
20260505191509 47 287 0.0 0.0 0.00 0.00 0.00 41 1010.7
20260505190038 47 295 0.0 0.0 0.00 0.00 0.00 42 1010.8
20260505184536 47 276 0.0 0.0 0.00 0.00 0.00 42 1010.6
20260505183032 46 259 0.0 0.0 0.00 0.00 0.00 42 1010.9
20260505181531 47 279 0.0 0.0 0.00 0.00 0.00 42 1010.9
20260505180042 46 245 0.0 0.0 0.00 0.00 0.00 44 1010.8
20260505174537 46 266 0.0 0.0 0.00 0.00 0.00 44 1010.8
20260505173057 45 290 0.0 0.0 0.00 0.00 0.00 44 1010.8
20260505171557 45 290 0.0 0.0 0.00 0.00 0.00 43 1010.9
20260505170129 46 286 0.0 0.0 0.00 0.00 0.00 42 1010.9
20260505164553 45 252 0.0 0.0 0.00 0.00 0.00 43 1010.9
20260505163050 45 311 0.0 0.0 0.00 0.00 0.00 42 1010.9
20260505161557 45 299 0.0 0.0 0.00 0.00 0.00 45 1010.8
20260505153054 43 288 0.0 0.0 0.00 0.00 0.00 46 1010.9
20260505151548 43 282 0.0 0.0 0.00 0.00 0.00 47 1010.8
20260505124553 38 360 0.0 0.0 0.00 0.00 0.00 57 1009.4
20260505123107 38 329 0.0 0.0 0.00 0.00 0.00 59 1009.4
20260505121546 38 346 0.0 0.0 0.00 0.00 0.00 63 1009.0
20260505120046 37 360 0.0 0.0 0.00 0.00 0.00 66 1008.7
20260505114604 36 281 0.0 0.0 0.00 0.00 0.00 68 1008.5
20260505113040 36 309 0.0 0.0 0.00 0.00 0.00 69 1008.2
20260505111553 36 313 0.0 0.0 0.00 0.00 0.00 69 1008.2
20260505101533 37 300 0.0 0.0 0.00 0.00 0.00 69 1007.9
20260505100030 37 311 0.0 0.0 0.00 0.00 0.00 68 1007.6
20260505094525 38 288 0.0 0.0 0.00 0.00 0.00 66 1007.6
20260505093053 38 292 0.0 0.0 0.00 0.00 0.00 66 1007.6
20260505091552 38 279 0.0 0.0 0.00 0.00 0.00 65 1007.3
20260505090054 38 299 0.0 0.0 0.00 0.00 0.00 64 1007.4
20260505084547 38 258 0.0 0.0 0.00 0.00 0.00 64 1007.2
20260505083058 39 277 0.0 0.0 0.00 0.00 0.00 63 1006.9
20260505081548 39 300 0.0 0.0 0.00 0.00 0.00 61 1006.7
20260505080041 39 281 0.0 0.0 0.00 0.00 0.00 61 1006.6
20260505074543 39 305 0.0 0.0 0.00 0.00 0.00 63 1006.6
20260505073036 39 284 0.0 0.0 0.00 0.00 0.00 63 1006.6
20260505071538 40 248 0.0 0.0 0.00 0.00 0.00 62 1006.6
20260505070005 40 281 0.0 0.0 0.00 0.00 0.00 60 1006.5
20260505064502 40 298 0.0 0.0 0.00 0.00 0.00 59 1006.6
20260505063100 40 288 0.0 0.0 0.00 0.00 0.00 59 1006.5
20260505061537 40 292 0.0 0.0 0.00 0.00 0.00 60 1006.6
20260505060029 41 276 0.0 0.0 0.00 0.00 0.00 59 1006.4
20260505054602 41 278 0.0 0.0 0.00 0.00 0.00 58 1006.3
20260505053108 42 279 0.0 0.0 0.00 0.00 0.00 57 1006.2
20260505051519 42 238 0.0 0.0 0.00 0.00 0.00 56 1006.0